Flag for U.S.A. Weather past 2 weeks in Knoxville, Tennessee, U.S.A.

Now
70 °F

Cloudy.


Feels Like: 75 °F
Forecast: 43 / 65 °F
Wind: 22 mph from Southwest

Location: McGhee Tyson Airport

Current Time: Mar 4, 2015 at 4:24:51 PM

Latest Report: Mar 4, 2015 at 3:53 PM


Visibility: 10 mi

Pressure: 29.77 "Hg

Humidity: 66%

Dew point: 58 °F

Location of KnoxvilleLocation

Historic Weather in Knoxville — Graph

°F

Knoxville temperature yesterday

Maximum temperature yesterday: 50 °F (at 3:53 PM)
Minimum temperature yesterday: 41 °F (at 12:53 AM)
Average temperature yesterday: 46 °F

Past Weeks' High & Low Weather Summary

 TemperatureHumidityPressure
High71 °F (Mar 4, 2:53 PM)100% (Feb 22, 12:53 AM)30.63 "Hg (Feb 22, 12:53 AM)
Low4 °F (Feb 19, 6:53 AM)45% (Feb 28, 2:53 PM)29.78 "Hg (Feb 26, 4:53 AM)
Average31 °F80%30.22 "Hg
* Reported Feb 17 2:53 PM — Mar 4 2:53 PM, Knoxville, Weather by CustomWeather, © 2015

Note: Actual official high and low records may vary slightly from our data, if they occured in-between our weather recording intervals... More about our weather records

Advertising

Knoxville weather history for previous 24 hours

 ConditionsComfort  
Time TempWeatherWind HumidityBarometerVisibility
2:53 PM
Wed, Mar 4
71 °FPartly sunny.24 mph66%29.79 "Hg10 mi
1:53 PM70 °FBroken clouds.29 mph68%29.83 "Hg10 mi
12:53 PM70 °FMostly cloudy.23 mph68%29.87 "Hg10 mi
11:53 AM68 °FMostly cloudy.26 mph73%29.88 "Hg10 mi
10:53 AM67 °FBroken clouds.28 mph76%29.89 "Hg10 mi
9:53 AM66 °FPartly sunny.23 mph78%29.90 "Hg10 mi
8:53 AM64 °FBroken clouds.24 mph84%29.91 "Hg10 mi
7:53 AM63 °FBroken clouds.20 mph87%29.91 "Hg10 mi
6:53 AM62 °FOvercast.20 mph90%29.91 "Hg10 mi
5:53 AM59 °FLight rain. Fog.14 mph96%29.90 "Hg6 mi
4:53 AM58 °FLight rain. Mostly cloudy.13 mph97%29.90 "Hg8 mi
3:53 AM58 °FLight rain. Fog.14 mph97%29.90 "Hg5 mi
2:53 AM57 °FLight rain. Overcast.13 mph96%29.91 "Hg9 mi
1:53 AM56 °FMostly cloudy.12 mph100%29.93 "Hg7 mi
12:53 AM51 °FFog.6 mph96%29.93 "Hg4 mi
11:53 PM
Tue, Mar 3
50 °FFog.6 mph100%29.96 "Hg1 mi
10:53 PM50 °FFog.3 mph96%29.98 "Hg1 mi
9:53 PM49 °FLight rain. Fog.No wind97%29.99 "Hg1 mi
9:03 PM48 °FLight rain. Fog.3 mph96%30.00 "Hg1 mi
8:53 PM48 °FLight rain. Fog.No wind96%30.01 "Hg1 mi
7:53 PM48 °FLight rain. Fog.No wind96%30.03 "Hg1 mi
6:53 PM48 °FLight rain. Fog.No wind96%30.02 "Hg1 mi
6:04 PM49 °FFog.No wind93%30.03 "Hg2 mi
4:53 PM49 °FLight rain. Fog.3 mph90%30.03 "Hg4 mi
Weather by CustomWeather, © 2015

See weather overviewHow to use our weather pages